San Angelo, TX

11:33 PM CST on February 24, 2017 (GMT -0600)
San Angelo Regional-Mathis

Weather History for KSJT - February, 2013

Change the Weather History Date:

Monday, February 25, 2013

  Actual Average Record
Temperature  
Mean Temperature 50 °F 53 °F  
Max Temperature 62 °F 66 °F 94 °F (1918)
Min Temperature 38 °F 40 °F 11 °F (1960)
Degree Days  
Heating Degree Days 15 13  
Month to date heating degree days 300 380  
Since 1 July heating degree days 1547 1924  
Cooling Degree Days 0 0  
Month to date cooling degree days 0 0  
Year to date cooling degree days 12 1  
Moisture  
Dew Point 30 °F    
Average Humidity 55    
Maximum Humidity 72    
Minimum Humidity 37    
Precipitation  
Precipitation 0.02 in 0.06 in 1.50 in (1924)
Month to date precipitation 0.39 1.19  
Year to date precipitation 1.82 2.12  
Snow  
Snow 0.00 in 0.00 in 5.00 in (1924)
Month to date snowfall T 0.3  
Since 1 July snowfall 2.8 2.1  
Snow Depth 0.00 in    
Sea Level Pressure  
Sea Level Pressure 29.76 in    
Wind  
Wind Speed 23 mph (WNW)    
Max Wind Speed 47 mph    
Max Gust Speed 61 mph    
Visibility 10 miles    
Events Rain , Thunderstorm    
T = Trace of Precipitation, MM = Missing Value Source: NWS Daily Summary

Daily Weather History Graph

Daily Weather History Graph

Search for Another Location

Airport or City:

Trip Planner

Search our weather history database for the weather conditions in past years. The results will help you decide how hot, cold, wet, or windy it might be!

Date:

Astronomy

Feb. 25, 2013 Rise Set
Actual Time 7:12 AM CST 6:37 PM CST
Civil Twilight 6:48 AM CST 7:01 PM CST
Nautical Twilight 6:20 AM CST 7:30 PM CST
Astronomical Twilight 5:52 AM CST 7:58 PM CST
Moon 6:48 PM CST 6:46 AM CST
Length of Visible Light 12h 13m
Length of Day
11h 24m
Full, 100% of the Moon is Illuminated
Feb 25
Full
Feb 25
Full
Mar 4
Last Quarter
Mar 11
New
Mar 19
First Quarter

Hourly Weather History & Observations

Time (CST) Temp. Windchill Dew Point Humidity Pressure Visibility Wind Dir Wind Speed Gust Speed Precip Events Conditions
12:06 AM 60.8 °F - 53.6 °F 77% 29.61 in 10.0 mi West 17.3 mph 29.9 mph 0.00 in Rain , Thunderstorm Light Rain
12:25 AM 51.8 °F - 41.0 °F 67% 29.62 in 9.0 mi WNW 17.3 mph 31.1 mph 0.02 in Rain , Thunderstorm Light Thunderstorms and Rain
12:46 AM 53.6 °F - 39.2 °F 58% 29.63 in 10.0 mi West 13.8 mph - 0.02 in   Overcast
12:51 AM 53.1 °F - 39.0 °F 59% 29.59 in 10.0 mi West 17.3 mph - 0.02 in   Overcast
1:51 AM 50.0 °F - 35.1 °F 57% 29.64 in 10.0 mi WNW 11.5 mph 20.7 mph N/A   Overcast
2:51 AM 46.9 °F - 35.1 °F 63% 29.65 in 10.0 mi NW 10.4 mph - N/A   Overcast
3:51 AM 46.9 °F - 35.1 °F 63% 29.65 in 10.0 mi West 8.1 mph - N/A   Overcast
4:51 AM 44.1 °F 40.8 °F 34.0 °F 68% 29.65 in 10.0 mi WSW 5.8 mph - 0.00 in   Mostly Cloudy
5:51 AM 45.0 °F 37.4 °F 25.0 °F 46% 29.63 in 10.0 mi West 18.4 mph 24.2 mph N/A   Clear
6:51 AM 44.1 °F 36.5 °F 23.0 °F 43% 29.67 in 10.0 mi West 17.3 mph - N/A   Clear
7:51 AM 44.1 °F 35.7 °F 19.9 °F 38% 29.68 in 10.0 mi West 20.7 mph - N/A   Clear
8:51 AM 46.0 °F 37.2 °F 23.0 °F 40% 29.70 in 10.0 mi West 26.5 mph 34.5 mph N/A   Clear
9:51 AM 42.1 °F 31.0 °F 28.0 °F 58% 29.73 in 10.0 mi WNW 32.2 mph 48.3 mph N/A   Mostly Cloudy
10:51 AM 44.1 °F 33.3 °F 28.0 °F 53% 29.73 in 10.0 mi West 34.5 mph 50.6 mph N/A   Mostly Cloudy
11:51 AM 44.1 °F 32.3 °F 28.9 °F 55% 29.75 in 10.0 mi West 42.6 mph 57.5 mph 0.00 in   Overcast
12:51 PM 43.0 °F 30.5 °F 30.9 °F 62% 29.74 in 10.0 mi WNW 44.9 mph 57.5 mph 0.00 in   Overcast
1:51 PM 42.1 °F 30.1 °F 28.0 °F 58% 29.75 in 10.0 mi WNW 38.0 mph 55.2 mph 0.00 in   Overcast
2:51 PM 42.1 °F 30.0 °F 28.9 °F 60% 29.80 in 10.0 mi WNW 39.1 mph 47.2 mph N/A   Overcast
3:51 PM 43.0 °F 32.0 °F 30.0 °F 60% 29.79 in 10.0 mi WNW 33.4 mph 44.9 mph N/A   Overcast
4:51 PM 44.1 °F 34.4 °F 28.9 °F 55% 29.85 in 10.0 mi NW 27.6 mph 41.4 mph N/A   Overcast
5:51 PM 44.1 °F 34.0 °F 28.0 °F 53% 29.87 in 10.0 mi NW 29.9 mph 41.4 mph N/A   Overcast
6:51 PM 45.0 °F 36.0 °F 27.0 °F 49% 29.89 in 10.0 mi NW 25.3 mph 35.7 mph N/A   Overcast
7:51 PM 44.1 °F 35.9 °F 26.1 °F 49% 29.92 in 10.0 mi NW 19.6 mph 35.7 mph N/A   Mostly Cloudy
8:51 PM 43.0 °F 35.1 °F 26.1 °F 51% 29.93 in 10.0 mi NW 17.3 mph 28.8 mph N/A   Clear
9:51 PM 42.1 °F 33.9 °F 26.1 °F 53% 29.96 in 10.0 mi WNW 17.3 mph 23.0 mph N/A   Clear
10:51 PM 39.9 °F 34.5 °F 26.1 °F 58% 29.96 in 10.0 mi West 8.1 mph - N/A   Clear
11:51 PM 37.9 °F 32.7 °F 25.0 °F 60% 29.94 in 10.0 mi WNW 6.9 mph - N/A   Clear